CW8078 Weather Reports


time (UTC)temp
F
wind
direction
speed
knots
gust
knots
rain 1hr
in
rain 24hr
in
rain mn
in
humidity
%
barometer
mb
20260509010803 57 140 0.0 0.0 0.31 0.34 0.34 92 1006.9
20260509010303 58 202 0.0 0.0 0.29 0.32 0.32 91 1007.3
20260509004803 59 277 0.0 0.0 0.23 0.26 0.26 92 1007.5
20260509004303 59 277 0.0 0.0 0.22 0.25 0.25 92 1007.7
20260509003803 59 277 0.0 0.0 0.19 0.22 0.22 92 1007.6
20260509001803 60 341 0.0 0.0 0.04 0.07 0.07 92 1007.4
20260509001303 60 342 0.0 0.0 0.01 0.04 0.04 92 1006.9
20260509000803 60 18 0.0 0.0 0.00 0.03 0.03 92 1006.5
20260509000303 60 20 0.0 0.0 0.00 0.03 0.03 91 1006.2
20260508233803 60 44 0.0 0.0 0.02 0.03 0.03 91 1006.0
20260508233304 60 5 0.0 0.9 0.02 0.03 0.03 90 1006.1
20260508231804 61 343 0.0 1.7 0.02 0.03 0.03 91 1006.4
20260508231304 61 6 0.0 2.6 0.02 0.03 0.03 91 1006.4
20260508230803 61 25 0.0 0.0 0.02 0.03 0.03 90 1006.5
20260508230303 61 352 0.0 0.0 0.02 0.03 0.03 90 1006.5
20260508224304 62 355 0.0 0.0 0.00 0.01 0.01 89 1007.0
20260508223803 62 350 0.0 0.0 0.01 0.01 0.01 89 1007.0
20260508223303 62 5 0.0 0.0 0.01 0.01 0.01 89 1007.0
20260508221803 62 5 0.0 0.0 0.01 0.01 0.01 89 1007.1
20260508220803 62 5 0.0 0.0 0.01 0.01 0.01 87 1007.0
20260508220303 62 5 0.0 0.0 0.01 0.01 0.01 87 1007.0
20260508214803 63 5 0.0 0.0 0.01 0.01 0.01 85 1007.1
20260508214303 63 5 0.0 0.0 0.01 0.01 0.01 85 1007.1
20260508213803 64 5 0.0 0.0 0.00 0.00 0.00 84 1007.0
20260508213303 64 5 0.0 0.0 0.00 0.00 0.00 82 1006.8
20260508211803 66 5 0.0 0.0 0.00 0.00 0.00 77 1006.5
20260508211303 67 5 0.0 0.0 0.00 0.00 0.00 73 1006.5
20260508210804 67 5 0.0 0.0 0.00 0.00 0.00 69 1007.1
20260508210304 68 5 0.0 0.0 0.00 0.00 0.00 67 1007.1
20260508204804 68 3 0.0 0.0 0.00 0.00 0.00 66 1007.3
20260508204304 69 0 0.0 0.0 0.00 0.00 0.00 66 1007.4
20260508203803 69 242 0.0 0.0 0.00 0.00 0.00 64 1007.6
20260508201803 69 308 0.0 0.0 0.00 0.00 0.00 62 1007.8
20260508201303 69 242 0.0 0.0 0.00 0.00 0.00 64 1007.9
20260508200804 69 202 0.0 0.0 0.00 0.00 0.00 67 1008.0
20260508200304 69 182 0.0 0.0 0.00 0.00 0.00 66 1008.0
20260508194304 68 208 0.0 0.0 0.00 0.00 0.00 67 1008.3
20260508193803 68 208 0.0 0.0 0.00 0.00 0.00 67 1008.2
20260508193303 67 208 0.0 0.0 0.00 0.00 0.00 64 1007.8
20260508191803 67 187 0.0 0.0 0.00 0.00 0.00 65 1008.4
20260508191303 66 192 0.0 0.0 0.00 0.00 0.00 68 1008.5
20260508190804 66 192 0.0 0.0 0.00 0.00 0.00 69 1008.5
20260508184803 64 163 0.0 0.0 0.00 0.00 0.00 70 1008.5
20260508184303 64 163 0.0 0.0 0.00 0.00 0.00 71 1008.6
20260508183803 64 163 0.0 0.0 0.00 0.00 0.00 70 1008.5
20260508183303 64 163 0.0 0.0 0.00 0.00 0.00 70 1008.4
20260508181803 63 163 0.0 0.0 0.00 0.00 0.00 70 1008.4
20260508181303 63 163 0.0 0.0 0.00 0.00 0.00 70 1008.3
20260508180804 63 163 0.0 0.0 0.00 0.00 0.00 70 1008.3
20260508174804 63 164 0.0 0.0 0.00 0.00 0.00 71 1008.5
20260508174304 63 166 0.0 0.0 0.00 0.00 0.00 69 1008.5
20260508173803 63 161 0.0 0.0 0.00 0.00 0.00 70 1008.5
20260508173303 63 161 0.0 2.6 0.00 0.00 0.00 69 1008.6
20260508171803 62 163 0.0 1.7 0.00 0.00 0.00 71 1008.7
20260508171303 62 152 0.0 0.0 0.00 0.00 0.00 70 1008.8
20260508170803 61 180 0.0 0.0 0.00 0.00 0.00 72 1008.9
20260508170303 60 180 0.0 0.0 0.00 0.00 0.00 73 1009.1
20260508164804 61 180 0.0 0.0 0.00 0.00 0.00 71 1009.5
20260508164304 60 180 0.0 0.0 0.00 0.00 0.00 72 1009.5
20260508163304 60 180 0.0 0.0 0.00 0.00 0.00 72 1009.5
20260508160804 59 180 0.0 0.0 0.00 0.00 0.00 75 1009.9
20260508160303 59 180 0.0 0.0 0.00 0.00 0.00 73 1010.0
20260508154803 59 180 0.0 0.0 0.00 0.00 0.00 74 1010.1
20260508154303 59 180 0.0 0.0 0.00 0.00 0.00 74 1010.3
20260508153803 59 180 0.0 0.0 0.00 0.00 0.00 74 1010.3
20260508153303 58 180 0.0 0.0 0.00 0.00 0.00 75 1010.3
20260508151804 58 180 0.0 0.0 0.00 0.00 0.00 75 1010.3
20260508151303 57 180 0.0 0.0 0.00 0.00 0.00 76 1010.4
20260508150304 57 180 0.0 0.0 0.00 0.00 0.00 75 1010.3
20260508144304 56 181 0.0 0.0 0.00 0.00 0.00 76 1010.2
20260508143803 56 181 0.0 0.0 0.00 0.00 0.00 76 1010.3
20260508143303 56 181 0.0 0.0 0.00 0.00 0.00 76 1010.2
20260508141802 56 142 0.0 0.0 0.00 0.00 0.00 76 1010.4
20260508141302 56 142 0.0 0.0 0.00 0.00 0.00 77 1010.4
20260508140802 56 142 0.0 0.0 0.00 0.00 0.00 76 1010.4
20260508134802 54 142 0.0 0.0 0.00 0.00 0.00 79 1010.6
20260508134302 54 142 0.0 0.0 0.00 0.00 0.00 80 1010.7
20260508133802 54 142 0.0 0.0 0.00 0.00 0.00 80 1010.8
20260508133302 54 142 0.0 0.0 0.00 0.00 0.00 80 1010.9
20260508131802 53 142 0.0 0.0 0.00 0.00 0.00 80 1010.6
20260508131302 53 142 0.0 0.0 0.00 0.00 0.00 82 1010.5
20260508130802 53 142 0.0 0.0 0.00 0.00 0.00 80 1010.5
20260508130302 53 142 0.0 0.0 0.00 0.00 0.00 80 1010.5
20260508124802 52 142 0.0 0.0 0.00 0.00 0.00 80 1010.4
20260508124302 52 142 0.0 0.0 0.00 0.00 0.00 79 1010.4
20260508123802 52 142 0.0 0.0 0.00 0.00 0.00 81 1010.4
20260508121302 51 173 0.0 0.0 0.00 0.00 0.00 81 1010.2
20260508120802 51 171 0.0 0.0 0.00 0.00 0.00 80 1010.1
20260508120302 51 161 0.0 0.0 0.00 0.00 0.00 80 1009.9
20260508114802 50 157 0.0 0.0 0.00 0.00 0.00 82 1009.9
20260508114302 49 157 0.0 0.0 0.00 0.00 0.00 82 1009.9
20260508113802 49 157 0.0 0.0 0.00 0.00 0.00 82 1009.9
20260508113303 49 157 0.0 0.0 0.00 0.00 0.00 82 1009.9
20260508111302 49 157 0.0 0.0 0.00 0.00 0.00 82 1009.8
20260508110802 49 157 0.0 0.0 0.00 0.00 0.00 82 1009.8
20260508110302 49 157 0.0 0.0 0.00 0.00 0.00 82 1009.8
20260508104802 49 157 0.0 0.0 0.00 0.00 0.00 81 1009.7
20260508104302 49 157 0.0 0.0 0.00 0.00 0.00 82 1009.6
20260508103802 49 157 0.0 0.0 0.00 0.00 0.00 82 1009.8
20260508103302 49 157 0.0 0.0 0.00 0.00 0.00 82 1009.7
20260508101802 49 157 0.0 0.0 0.00 0.00 0.00 82 1009.7
20260508101302 50 157 0.0 0.0 0.00 0.00 0.00 82 1009.7
20260508100802 50 157 0.0 0.0 0.00 0.00 0.00 81 1009.7
20260508100302 50 157 0.0 0.0 0.00 0.00 0.00 81 1009.7
20260508094802 50 157 0.0 0.0 0.00 0.00 0.00 81 1009.7
20260508094302 50 157 0.0 0.0 0.00 0.00 0.00 81 1009.8
20260508093802 50 158 0.0 0.0 0.00 0.00 0.00 81 1009.8
20260508093302 50 158 0.0 0.0 0.00 0.00 0.00 82 1009.8
20260508091802 50 158 0.0 0.0 0.00 0.00 0.00 82 1009.8
20260508090802 50 158 0.0 0.0 0.00 0.00 0.00 83 1009.8
20260508090303 49 158 0.0 0.0 0.00 0.00 0.00 84 1009.8
20260508083802 48 158 0.0 0.0 0.00 0.00 0.00 86 1009.9
20260508081802 48 158 0.0 0.0 0.00 0.00 0.00 87 1010.1
20260508081302 48 158 0.0 0.0 0.00 0.00 0.00 86 1010.2
20260508080802 48 158 0.0 0.0 0.00 0.00 0.00 86 1010.3
20260508080302 48 158 0.0 0.0 0.00 0.00 0.00 86 1010.3
20260508074802 48 158 0.0 0.0 0.00 0.00 0.00 86 1010.3
20260508074302 48 158 0.0 0.0 0.00 0.00 0.00 86 1010.3
20260508073802 48 158 0.0 0.0 0.00 0.00 0.00 86 1010.4
20260508073302 48 158 0.0 0.0 0.00 0.00 0.00 86 1010.5
20260508071802 48 158 0.0 0.0 0.00 0.00 0.00 86 1010.6
20260508071302 48 158 0.0 0.0 0.00 0.00 0.00 87 1010.7
20260508070802 48 158 0.0 0.0 0.00 0.00 0.00 87 1010.8
20260508070302 48 158 0.0 0.0 0.00 0.00 0.00 87 1010.8
20260508064802 48 158 0.0 0.0 0.00 0.00 0.00 86 1010.8
20260508064302 48 158 0.0 0.0 0.00 0.00 0.00 86 1010.9
20260508063802 48 158 0.0 0.0 0.00 0.00 0.00 86 1011.0
20260508063302 48 158 0.0 0.0 0.00 0.00 0.00 86 1011.1
20260508061302 49 158 0.0 0.0 0.00 0.00 0.00 86 1011.3
20260508060802 49 158 0.0 0.0 0.00 0.00 0.00 86 1011.4
20260508060302 49 158 0.0 0.0 0.00 0.00 0.00 85 1011.4
20260508054802 49 158 0.0 0.0 0.00 0.00 0.00 84 1011.4
20260508054302 49 158 0.0 0.0 0.00 0.00 0.00 84 1011.5
20260508053302 49 158 0.0 0.0 0.00 0.00 0.00 83 1011.6
20260508051803 50 158 0.0 0.0 0.00 0.00 0.00 82 1011.6
20260508051302 50 158 0.0 0.0 0.00 0.00 0.00 81 1011.6
20260508050802 51 158 0.0 0.0 0.00 0.00 0.00 80 1011.7
20260508050303 51 158 0.0 0.0 0.00 0.00 0.00 80 1011.7
20260508044803 52 158 0.0 0.0 0.00 0.00 0.00 79 1011.8
20260508043803 52 158 0.0 0.0 0.00 0.00 0.00 77 1011.8
20260508043303 53 158 0.0 0.0 0.00 0.00 0.00 76 1011.8
20260508041803 53 158 0.0 0.0 0.00 0.00 0.00 76 1011.9
20260508041303 54 158 0.0 0.0 0.00 0.00 0.00 76 1011.9
20260508040802 54 158 0.0 0.0 0.00 0.00 0.00 75 1011.8
20260508040303 54 158 0.0 0.0 0.00 0.00 0.00 75 1011.9
20260508034802 53 158 0.0 0.0 0.00 0.00 0.00 77 1011.9
20260508034302 53 158 0.0 0.0 0.00 0.00 0.00 78 1011.8
20260508033803 52 158 0.0 0.0 0.00 0.00 0.00 78 1011.8
20260508033303 52 158 0.0 0.0 0.00 0.00 0.00 79 1011.8
20260508031802 52 158 0.0 0.0 0.00 0.00 0.00 80 1011.8
20260508031302 52 158 0.0 0.0 0.00 0.00 0.00 80 1011.8
20260508030802 52 158 0.0 0.0 0.00 0.00 0.00 78 1011.8
20260508030302 52 158 0.0 0.0 0.00 0.00 0.00 78 1011.8
20260508024803 53 158 0.0 0.0 0.00 0.00 0.00 77 1011.7
20260508024303 53 158 0.0 0.0 0.00 0.00 0.00 78 1011.7
20260508023802 53 158 0.0 0.0 0.00 0.00 0.00 77 1011.7
20260508023303 53 158 0.0 0.0 0.00 0.00 0.00 77 1011.7
20260508021302 54 158 0.0 0.0 0.00 0.00 0.00 74 1011.6
20260508020802 54 158 0.0 0.0 0.00 0.00 0.00 72 1011.6
20260508020303 55 158 0.0 0.0 0.00 0.00 0.00 73 1011.5
20260508014802 56 158 0.0 0.0 0.00 0.00 0.00 69 1011.4
20260508014302 56 158 0.0 0.0 0.00 0.00 0.00 68 1011.4
20260508013803 57 158 0.0 0.0 0.00 0.00 0.00 67 1011.4
20260508013303 57 158 0.0 0.0 0.00 0.00 0.00 67 1011.4
20260508011802 58 158 0.0 0.0 0.00 0.00 0.00 65 1011.3